Quantico, VA

11:11 PM EST on December 06, 2019 (GMT -0500)
Quantico Marine Corps Air Facility

Weather History for KNYG - October, 2019

Change the Weather History Date:

Sunday, October 20, 2019

  Actual Average Record
Temperature  
Mean Temperature 56 °F -  
Max Temperature 59 °F 63 °F 82 °F (2016)
Min Temperature 54 °F 44 °F 34 °F (2008)
Degree Days  
Heating Degree Days 8    
Growing Degree Days 6 (Base 50)    
Moisture  
Dew Point 54 °F    
Average Humidity 89    
Maximum Humidity 94    
Minimum Humidity 80    
Precipitation  
Precipitation 1.69 in - - ()
Sea Level Pressure  
Sea Level Pressure 29.91 in    
Wind  
Wind Speed 11 mph (NNE)    
Max Wind Speed 22 mph    
Max Gust Speed 30 mph    
Visibility 4 miles    
Events Rain    
Averages and records for this station are not official NWS values.
T = Trace of Precipitation, MM = Missing Value Source: NWS Daily Summary

Daily Weather History Graph

Daily Weather History Graph

Search for Another Location

Airport or City:

Astronomy

Oct. 20, 2019 Rise Set
Actual Time 7:23 AM EDT 6:24 PM EDT
Civil Twilight 6:56 AM EDT 6:51 PM EDT
Nautical Twilight 6:25 AM EDT 7:22 PM EDT
Astronomical Twilight 5:54 AM EDT 7:52 PM EDT
Moon 11:34 PM EDT (10/20) 1:46 PM EDT (10/20)
Length of Visible Light 11h 55m
Length of Day
11h 01m
Waning Gibbous, 59% of the Moon is Illuminated
Oct 20
Waning Gibbous
Oct 21
Last Quarter
Oct 27
New
Nov 4
First Quarter
Nov 12
Full

Hourly Weather History & Observations

Time (EDT) Temp. Dew Point Humidity Pressure Visibility Wind Dir Wind Speed Gust Speed Precip Events Conditions
12:56 AM 55.9 °F 50.0 °F 80% 30.02 in 10.0 mi Calm Calm - N/A   Mostly Cloudy
1:56 AM 55.9 °F 50.0 °F 80% 30.01 in 10.0 mi Calm Calm - N/A   Overcast
2:56 AM 55.9 °F 50.0 °F 80% 29.98 in 10.0 mi NW 5.8 mph - N/A   Overcast
3:56 AM 55.9 °F 51.1 °F 84% 29.96 in 10.0 mi NW 4.6 mph - N/A   Overcast
4:56 AM 55.0 °F 51.1 °F 86% 29.97 in 10.0 mi NW 5.8 mph - 0.02 in Rain Light Rain
5:56 AM 55.0 °F 51.1 °F 86% 29.97 in 8.0 mi North 4.6 mph - 0.09 in Rain Light Rain
6:56 AM 54.0 °F 51.1 °F 90% 29.97 in 5.0 mi North 6.9 mph - 0.11 in Rain Rain
7:56 AM 55.0 °F 51.1 °F 86% 29.96 in 5.0 mi NNE 10.4 mph - 0.19 in Rain Rain
8:34 AM 55.0 °F 52.0 °F 89% 29.96 in 2.5 mi NE 10.4 mph - 0.12 in Rain Rain
8:37 AM 55.0 °F 52.0 °F 89% 29.96 in 2.5 mi NE 11.5 mph - 0.13 in Rain Rain
8:56 AM 55.9 °F 53.1 °F 90% 29.96 in 3.0 mi NE 11.5 mph - 0.18 in Rain Rain
9:45 AM 55.9 °F 53.1 °F 90% 29.95 in 2.0 mi NNE 11.5 mph - 0.12 in Rain Rain
9:56 AM 57.0 °F 54.0 °F 89% 29.95 in 3.0 mi NE 11.5 mph - 0.15 in Rain Rain
10:12 AM 57.0 °F 54.0 °F 89% 29.93 in 2.0 mi NE 15.0 mph - 0.07 in Rain Heavy Rain
10:22 AM 57.0 °F 54.0 °F 89% 29.93 in 3.0 mi NNE 16.1 mph - 0.10 in Rain Heavy Rain
10:27 AM 57.0 °F 54.0 °F 89% 29.93 in 2.5 mi NE 15.0 mph - 0.12 in Rain Heavy Rain
10:36 AM 57.9 °F 54.0 °F 87% 29.92 in 3.0 mi NE 17.3 mph 23.0 mph 0.15 in Rain Rain
10:51 AM 57.2 °F 55.4 °F 94% 29.92 in 2.0 mi NE 19.6 mph - 0.20 in Rain Rain
10:56 AM 57.9 °F 55.0 °F 90% 29.92 in 2.5 mi NE 17.3 mph - 0.22 in Rain Rain
11:07 AM 57.9 °F 55.0 °F 90% 29.91 in 3.0 mi NE 17.3 mph 25.3 mph 0.03 in Rain Rain
11:16 AM 57.9 °F 55.0 °F 90% 29.91 in 2.0 mi NE 18.4 mph 25.3 mph 0.08 in Rain Heavy Rain
11:31 AM 57.9 °F 55.0 °F 90% 29.90 in 1.8 mi NE 20.7 mph 26.5 mph 0.19 in Rain Heavy Rain
11:46 AM 57.9 °F 55.0 °F 90% 29.89 in 2.0 mi NE 17.3 mph 28.8 mph 0.27 in Rain Heavy Rain
11:51 AM 57.2 °F 55.4 °F 94% 29.90 in 1.8 mi NE 16.1 mph - 0.30 in Rain Heavy Rain
11:54 AM 57.2 °F 55.4 °F 94% 29.89 in 2.0 mi NNE 16.1 mph - 0.31 in Rain Heavy Rain
11:56 AM 57.9 °F 55.0 °F 90% 29.90 in 2.0 mi NE 15.0 mph - 0.32 in Rain Heavy Rain
12:29 PM 57.9 °F 55.0 °F 90% 29.87 in 1.8 mi NE 21.9 mph 28.8 mph 0.09 in Rain Rain
12:53 PM 57.2 °F 55.4 °F 94% 29.86 in 3.0 mi NNE 19.6 mph 26.5 mph 0.15 in Rain Rain
12:56 PM 57.9 °F 55.0 °F 90% 29.86 in 3.0 mi NNE 17.3 mph 26.5 mph 0.15 in Rain Rain
1:15 PM 57.9 °F 54.0 °F 87% 29.85 in 4.0 mi NNE 19.6 mph 27.6 mph 0.02 in Rain Light Rain
1:26 PM 57.9 °F 54.0 °F 87% 29.84 in 3.0 mi NNE 18.4 mph - 0.02 in Rain Light Rain
1:36 PM 57.9 °F 54.0 °F 87% 29.83 in 1.8 mi NNE 16.1 mph 29.9 mph 0.04 in Rain Rain
1:56 PM 57.9 °F 55.0 °F 90% 29.84 in 1.5 mi NNE 17.3 mph 24.2 mph 0.07 in Rain Light Rain
2:56 PM 59.0 °F 55.9 °F 90% 29.83 in 1.8 mi North 16.1 mph - 0.07 in Rain Light Rain
3:09 PM 59.0 °F 55.9 °F 90% 29.82 in 2.0 mi North 18.4 mph 25.3 mph 0.01 in Rain Light Rain
3:13 PM 59.0 °F 55.9 °F 90% 29.82 in 1.8 mi North 15.0 mph 25.3 mph 0.02 in Rain Light Rain
3:20 PM 59.0 °F 55.9 °F 90% 29.83 in 2.0 mi North 16.1 mph - 0.02 in Rain Light Rain
3:32 PM 59.0 °F 55.9 °F 90% 29.84 in 2.5 mi North 18.4 mph 26.5 mph 0.03 in Rain Light Rain
3:39 PM 59.0 °F 55.9 °F 90% 29.84 in 2.5 mi North 17.3 mph 25.3 mph 0.03 in Rain Light Rain
3:56 PM 59.0 °F 55.9 °F 90% 29.85 in 2.0 mi North 18.4 mph - 0.04 in Rain Light Rain
3:59 PM 59.0 °F 55.9 °F 90% 29.85 in 2.0 mi North 18.4 mph 25.3 mph 0.00 in Rain Light Rain
4:56 PM 59.0 °F 55.9 °F 90% 29.87 in 2.5 mi North 17.3 mph - 0.02 in Rain Light Rain
5:54 PM 59.0 °F 55.4 °F 88% 29.87 in 2.5 mi North 16.1 mph - 0.02 in Rain Light Rain
5:56 PM 59.0 °F 55.9 °F 90% 29.87 in 2.5 mi North 13.8 mph - 0.02 in Rain Light Rain
6:25 PM 57.9 °F 55.0 °F 90% 29.87 in 2.0 mi North 16.1 mph 25.3 mph 0.02 in Rain Light Rain
6:30 PM 57.9 °F 55.0 °F 90% 29.88 in 3.0 mi North 15.0 mph 25.3 mph 0.02 in Rain Light Rain
6:45 PM 57.9 °F 55.0 °F 90% 29.88 in 6.0 mi North 15.0 mph 25.3 mph 0.02 in Rain Light Rain
6:56 PM 57.9 °F 55.0 °F 90% 29.89 in 6.0 mi North 13.8 mph - 0.03 in Rain Light Rain
7:21 PM 59.0 °F 55.0 °F 87% 29.90 in 9.0 mi North 15.0 mph - 0.00 in Rain Light Rain
7:34 PM 59.0 °F 55.0 °F 87% 29.90 in 10.0 mi NNE 12.7 mph - 0.00 in   Overcast
7:56 PM 59.0 °F 55.0 °F 87% 29.91 in 10.0 mi NNE 13.8 mph - 0.00 in   Overcast
8:31 PM 59.0 °F 55.0 °F 87% 29.93 in 10.0 mi North 12.7 mph - N/A   Overcast
8:56 PM 59.0 °F 54.0 °F 83% 29.93 in 10.0 mi North 13.8 mph - N/A   Overcast
9:56 PM 57.9 °F 54.0 °F 87% 29.95 in 10.0 mi North 10.4 mph - N/A   Overcast
10:56 PM 57.9 °F 54.0 °F 87% 29.98 in 7.0 mi North 9.2 mph - 0.00 in Rain Light Rain
11:38 PM 57.0 °F 54.0 °F 89% 29.98 in 8.0 mi North 9.2 mph - 0.01 in   Overcast
11:51 PM 57.2 °F 53.6 °F 88% 29.98 in 10.0 mi North 9.2 mph - 0.01 in   Overcast
11:56 PM 57.0 °F 54.0 °F 89% 29.98 in 10.0 mi North 9.2 mph - 0.01 in   Overcast